Wind_Speed
37 38 40 41 42 44 45 50 61 72 81 84 85 91 101 106 105 100 99 100 97 94 88 83 81 80 78 74 65 59 56 53 55 55 55 54 51 47
29 32 34 36 38 40 43 46 55 67 76 82 82 84 91 100 105 102 98 99 98 96 90 84 81 79 78 76 73 66 61 58 53 53 53 54 52 49
21 26 29 32 34 37 40 44 50 61 71 78 81 81 84 92 102 104 99 96 98 98 94 88 82 78 77 75 73 70 66 62 56 52 53 53 50 48
13 19 24 28 30 33 37 41 46 55 66 74 80 79 79 84 94 102 101 97 97 98 95 91 85 80 77 75 73 70 68 67 62 55 50 51 51 49
8 14 20 24 27 29 33 37 42 49 60 69 76 79 76 78 86 97 101 98 96 96 95 93 88 82 78 75 73 71 67 66 65 62 54 51 51 49
8 13 17 21 23 26 29 33 38 45 55 65 72 77 76 74 77 90 99 100 97 94 93 90 87 83 79 76 73 71 68 66 66 63 60 55 52 50
9 12 16 18 20 22 26 30 35 41 50 60 69 74 75 72 72 81 92 99 98 93 89 86 83 80 78 76 75 72 69 67 67 66 64 59 54 49
9 11 13 15 17 19 23 27 33 39 47 56 65 71 73 70 68 71 82 93 98 94 89 84 81 80 79 77 75 72 69 68 68 67 64 62 58 52
9 9 10 12 14 17 20 25 30 36 44 53 62 68 69 67 64 64 72 83 92 95 91 83 79 78 78 78 77 74 70 68 68 67 66 63 60 58
7 6 6 9 12 15 19 23 28 34 42 50 58 64 65 63 60 60 63 71 82 92 92 84 78 76 77 76 75 73 71 69 67 66 66 65 63 60
7 3 3 7 11 15 18 22 26 32 39 47 54 60 62 59 56 54 58 64 73 82 86 83 77 75 75 74 74 73 72 70 67 66 66 65 64 63
9 4 3 8 12 16 19 22 25 31 38 44 51 56 58 57 52 49 51 58 66 74 81 79 75 73 74 73 72 72 71 70 68 67 66 65 64 64
11 6 7 10 14 17 19 21 25 30 36 41 46 51 54 54 50 45 45 51 60 67 73 75 72 72 74 74 72 71 71 70 69 68 66 64 64 63
13 9 9 12 16 18 20 21 24 29 33 37 41 46 49 50 48 44 42 46 55 63 69 72 72 71 70 72 74 73 72 71 70 68 66 65 63 63
15 11 11 14 17 18 20 21 24 27 30 34 36 40 43 46 47 44 42 45 52 63 69 71 70 70 69 70 72 74 73 73 72 70 68 65 62 61
18 12 12 14 17 18 19 20 22 24 26 28 31 34 38 41 43 44 44 47 51 63 71 72 69 67 67 67 69 73 74 73 72 71 69 65 62 60
23 14 11 13 15 16 17 19 20 21 22 23 25 28 31 35 39 43 45 48 52 63 71 72 70 66 63 62 64 69 72 72 70 69 67 65 63 61
28 18 11 10 13 14 15 17 18 19 19 19 19 21 24 28 33 38 44 49 54 62 69 69 67 65 61 57 58 63 69 70 69 66 64 63 62 61
36 25 14 8 10 12 13 15 16 17 17 17 16 17 18 21 25 31 38 46 53 61 67 69 66 63 58 56 58 61 65 67 67 66 65 63 63 62
43 34 22 10 6 9 12 14 15 17 17 16 16 15 16 17 20 24 32 40 48 56 63 67 65 61 56 55 55 59 63 64 66 65 64 64 63 62
44 41 32 20 8 5 10 13 15 17 17 17 16 16 16 16 18 21 27 35 42 50 56 62 63 61 56 54 55 58 61 63 62 62 62 62 62 60
40 40 38 31 20 7 5 12 15 17 17 18 17 17 16 17 18 20 25 31 38 45 51 55 60 61 58 56 55 56 57 59 60 59 59 58 57 55
36 35 35 34 30 20 8 4 12 16 18 19 19 18 18 18 19 21 24 30 37 44 49 52 56 58 58 57 57 56 55 56 56 56 56 56 55 53
Wind_Direction
233 235 237 238 237 235 231 223 217 216 216 215 215 213 212 209 208 208 210 212 214 216 217 217 218 219 222 224 225 224 222 220 219 218 220 219 219 220
225 229 233 235 236 233 230 225 218 214 214 214 214 213 212 209 207 205 208 210 212 215 217 217 217 217 219 222 224 225 223 222 220 219 220 219 219 219
220 226 231 233 234 232 229 225 218 213 212 213 213 212 211 210 207 204 204 208 211 214 215 216 216 216 218 220 222 224 225 224 223 221 221 219 217 219
216 225 229 231 233 231 228 224 219 213 210 210 211 211 211 209 208 204 202 204 209 212 214 216 217 216 216 218 220 223 225 226 226 225 224 221 220 221
214 223 228 229 231 229 227 223 218 212 208 208 210 209 210 209 208 205 202 202 205 210 213 215 216 216 217 218 219 221 222 225 226 226 226 223 222 223
232 230 231 230 229 227 224 220 216 211 207 206 208 208 209 208 208 207 205 203 202 205 210 213 216 216 216 217 219 220 221 223 223 224 225 225 223 224
253 241 234 229 227 222 218 216 213 209 205 203 205 207 207 208 208 207 208 206 202 202 205 209 213 214 215 216 217 218 220 221 221 222 223 225 224 223
264 250 238 229 221 214 211 210 208 205 202 200 202 205 206 207 207 209 209 209 207 201 201 203 207 211 213 214 215 216 218 218 219 220 221 224 225 226
280 258 238 224 212 206 204 203 202 201 199 198 199 203 204 205 207 209 211 212 211 205 202 202 203 206 209 211 212 213 214 215 216 217 219 222 225 227
310 274 235 210 198 195 194 193 194 195 195 194 196 200 202 204 206 209 211 213 214 211 208 204 202 204 204 206 209 210 212 212 213 215 218 221 225 228
350 320 206 185 180 179 180 182 186 189 189 190 193 198 201 203 206 210 213 214 216 214 212 209 205 205 204 205 207 209 211 212 213 215 217 221 224 227
15 37 133 157 162 163 166 171 177 182 183 185 190 195 199 202 206 209 213 214 216 216 213 211 207 207 206 205 206 208 210 212 214 216 218 220 224 227
30 60 111 137 147 152 156 162 168 174 177 181 186 193 197 202 206 209 212 213 213 213 213 211 209 210 210 209 209 210 212 213 215 217 219 221 223 227
38 69 107 130 139 143 148 154 161 167 173 178 184 191 197 202 206 210 212 211 209 206 206 207 208 209 211 212 211 212 214 215 216 218 220 222 224 226
42 72 106 128 136 140 143 149 157 163 169 176 184 191 198 204 208 211 214 211 206 200 197 200 204 207 210 213 214 215 217 218 219 220 221 222 225 228
42 69 104 127 137 141 143 148 153 160 167 176 185 194 201 207 211 214 216 212 205 197 192 192 196 200 205 210 214 215 217 219 220 221 221 223 225 227
39 59 96 127 139 144 147 150 154 159 167 176 187 197 205 211 215 218 217 213 208 198 190 188 190 192 197 203 209 213 215 216 219 221 223 224 226 228
36 47 78 122 142 150 153 156 159 163 169 178 188 198 207 213 217 218 217 213 209 203 195 188 187 189 192 198 205 210 212 214 216 219 222 224 226 228
34 39 54 101 144 158 164 166 168 171 175 182 191 200 207 211 213 213 211 209 207 205 200 192 187 186 188 194 200 205 209 212 214 216 218 220 223 225
32 35 40 56 128 168 176 179 180 181 183 187 192 197 202 204 204 203 201 201 201 202 202 199 194 188 186 189 196 202 206 210 213 215 217 219 222 223
30 32 35 39 54 164 188 191 192 192 192 192 193 194 195 196 197 195 193 192 193 196 199 200 199 195 189 190 194 199 203 206 210 213 216 219 221 223
27 29 32 35 37 46 191 201 202 201 200 198 196 195 194 194 194 193 190 189 189 190 192 196 199 198 195 194 194 196 200 203 206 209 211 214 216 218
24 26 28 31 33 36 39 206 211 210 207 204 201 199 195 193 192 192 191 189 188 187 187 189 194 198 199 197 196 196 198 200 203 205 205 207 209 211
Height
5290 5299 5307 5314 5321 5328 5336 5344 5356 5368 5383 5399 5414 5432 5453 5475 5499 5522 5542 5562 5580 5596 5612 5628 5644 5658 5672 5684 5694 5705 5716 5725 5733 5741 5749 5758 5765 5773
5281 5290 5297 5304 5311 5318 5325 5332 5342 5355 5370 5385 5402 5418 5437 5458 5482 5506 5527 5546 5564 5582 5599 5615 5631 5646 5660 5673 5685 5696 5706 5715 5722 5732 5741 5748 5756 5764
5278 5284 5290 5296 5302 5308 5314 5322 5331 5343 5358 5373 5390 5406 5424 5443 5465 5490 5512 5531 5550 5567 5585 5602 5618 5633 5648 5661 5674 5686 5696 5706 5714 5724 5733 5740 5747 5755
5277 5281 5285 5290 5295 5300 5306 5314 5323 5334 5348 5363 5379 5396 5413 5431 5452 5475 5497 5516 5535 5553 5571 5588 5605 5621 5636 5649 5662 5674 5686 5697 5707 5717 5725 5733 5740 5746
5277 5279 5281 5285 5290 5295 5301 5308 5316 5326 5339 5354 5369 5387 5404 5422 5440 5461 5482 5501 5521 5540 5557 5574 5592 5609 5623 5637 5650 5663 5676 5688 5699 5709 5717 5724 5731 5737
5277 5278 5279 5282 5286 5290 5296 5303 5311 5320 5332 5346 5360 5378 5396 5414 5431 5449 5468 5487 5507 5527 5544 5562 5579 5596 5611 5626 5641 5653 5665 5677 5688 5699 5709 5716 5722 5729
5277 5277 5278 5280 5283 5287 5292 5298 5306 5315 5326 5339 5353 5370 5388 5406 5421 5439 5456 5473 5494 5513 5532 5550 5568 5585 5599 5614 5627 5640 5653 5666 5678 5689 5699 5707 5714 5721
5275 5275 5276 5278 5281 5284 5289 5295 5302 5310 5321 5333 5347 5363 5382 5400 5417 5432 5448 5463 5482 5502 5519 5537 5555 5572 5587 5602 5616 5629 5642 5655 5667 5678 5689 5698 5706 5712
5274 5273 5274 5276 5279 5283 5287 5293 5299 5307 5317 5329 5343 5359 5378 5396 5413 5428 5440 5452 5469 5486 5506 5525 5542 5559 5575 5589 5603 5617 5630 5644 5656 5667 5678 5688 5695 5703
5272 5272 5273 5275 5278 5282 5287 5292 5299 5306 5315 5327 5341 5358 5375 5391 5405 5419 5431 5445 5460 5475 5493 5513 5530 5547 5562 5577 5591 5605 5619 5632 5645 5656 5667 5676 5685 5693
5273 5272 5273 5275 5279 5283 5287 5293 5299 5306 5315 5326 5340 5356 5372 5388 5401 5414 5426 5439 5451 5465 5482 5501 5518 5534 5550 5565 5579 5593 5607 5620 5633 5645 5655 5665 5675 5683
5275 5274 5275 5277 5281 5285 5290 5295 5301 5308 5317 5328 5341 5355 5370 5385 5397 5409 5420 5431 5443 5458 5473 5491 5507 5521 5538 5553 5567 5581 5595 5608 5621 5633 5644 5655 5664 5672
5278 5278 5279 5281 5284 5289 5294 5299 5305 5312 5320 5330 5342 5355 5369 5382 5393 5403 5413 5423 5436 5450 5465 5481 5497 5511 5526 5541 5555 5570 5583 5597 5610 5622 5633 5644 5654 5664
5283 5283 5284 5286 5290 5294 5299 5304 5310 5316 5324 5334 5344 5356 5367 5379 5389 5399 5407 5417 5428 5442 5457 5474 5489 5503 5517 5531 5545 5558 5571 5585 5599 5612 5623 5634 5644 5653
5289 5289 5290 5293 5296 5300 5304 5309 5315 5321 5328 5337 5346 5356 5366 5375 5385 5394 5402 5411 5421 5434 5450 5466 5481 5494 5507 5521 5534 5548 5561 5574 5588 5602 5615 5626 5635 5645
5297 5296 5297 5299 5303 5306 5310 5314 5320 5325 5332 5339 5347 5355 5364 5372 5380 5388 5396 5405 5415 5429 5443 5458 5472 5485 5499 5511 5524 5538 5551 5565 5579 5593 5606 5617 5627 5636
5305 5303 5304 5306 5309 5312 5316 5319 5324 5329 5335 5341 5348 5355 5361 5368 5375 5382 5390 5399 5409 5422 5435 5449 5463 5476 5489 5501 5513 5526 5541 5556 5571 5585 5598 5608 5618 5626
5313 5311 5311 5312 5314 5317 5321 5324 5328 5332 5337 5343 5348 5353 5358 5364 5369 5375 5383 5392 5402 5414 5427 5441 5455 5468 5481 5492 5504 5517 5531 5546 5561 5575 5587 5597 5606 5615
5323 5319 5317 5318 5319 5322 5325 5328 5331 5335 5339 5344 5348 5352 5357 5361 5365 5370 5376 5384 5395 5407 5419 5433 5446 5460 5472 5485 5496 5508 5523 5537 5551 5562 5574 5585 5595 5604
5333 5327 5324 5323 5323 5325 5328 5331 5334 5338 5341 5345 5349 5352 5356 5359 5362 5366 5371 5378 5388 5400 5412 5426 5440 5453 5466 5479 5491 5502 5515 5529 5542 5553 5564 5573 5582 5592
5343 5337 5332 5328 5327 5328 5330 5333 5336 5339 5342 5346 5349 5352 5355 5358 5361 5365 5369 5376 5384 5394 5406 5420 5433 5447 5460 5472 5484 5496 5508 5521 5533 5545 5554 5564 5573 5581
5352 5346 5340 5335 5332 5331 5331 5333 5336 5339 5342 5346 5349 5352 5355 5358 5361 5365 5369 5375 5382 5391 5402 5414 5427 5440 5453 5465 5478 5490 5502 5513 5524 5534 5545 5555 5564 5573
5360 5354 5348 5343 5339 5335 5334 5334 5336 5338 5341 5345 5348 5351 5354 5358 5361 5365 5369 5374 5381 5389 5398 5409 5421 5434 5446 5458 5470 5482 5494 5505 5516 5525 5533 5542 5552 5560